Regional Weather Roundup
Issued by NWS Glasgow, MT

Home | Current Version | Previous Version | Text Only | Print | Product List | Glossary On
Versions: 1 2 3 4 5 6 7 8 9 10 11 12 13 14 15 16 17 18 19 20 21 22 23 24 25 26 27 28 29 30 31 32 33 34 35 36 37 38 39 40 41 42 43 44 45 46 47 48 49
000
ASUS45 KGGW 251015
RWRGGW
HOURLY REGIONAL WEATHER ROUNDUP FOR NORTHEAST MONTANA
NATIONAL WEATHER SERVICE GLASGOW MONTANA
400 AM MDT TUE APR 25 2017

NOTE: "FAIR" INDICATES FEW OR NO CLOUDS BELOW 12,000 FEET WITH NO
SIGNIFICANT WEATHER AND/OR OBSTRUCTIONS TO VISISBILITY.

NORTHEAST MONTANA


CITY           SKY/WX    TMP DP  RH WIND       PRES   REMARKS
GLASGOW        CLOUDY    30  24  78 E13       29.85S
PLENTYWOOD       N/A     28  26  92 E12         N/A
WOLF POINT     CLOUDY    32  26  78 E14       29.86S
JORDAN           N/A     30  26  85 NE10      29.80R
WINNETT          N/A     34  30  86 NE9         N/A
SIDNEY         CLOUDY    30  27  88 NE12      29.84S
GLENDIVE       CLOUDY    29  28  96 NE12      29.80R FOG
MALTA            N/A     32  28  85 E6          N/A

FORT PECK REPORTS


CITY           SKY/WX    TMP DP  RH WIND       PRES   REMARKS
FORT PECK        N/A     30  28  92 NE12        N/A
THE PINES        N/A     30  26  85 E3          N/A

SOUTHEAST MONTANA


CITY           SKY/WX    TMP DP  RH WIND       PRES   REMARKS
BILLINGS       CLOUDY    36  35  96 NE16      29.70R FOG
MILES CITY     CLOUDY    32  27  81 NE18      29.76R
BAKER          CLOUDY    29  26  89 NE14      29.74R
LIVINGSTON     LGT SNOW  34  33  96 E6        29.68R FOG

CENTRAL MONTANA


CITY           SKY/WX    TMP DP  RH WIND       PRES   REMARKS
HAVRE          CLOUDY    33  28  81 E18       29.79R
LEWISTOWN      FOG       34  33  96 E14       29.71R VSB 3/4
GREAT FALLS    CLOUDY    40  38  93 NW7       29.72S
CUT BANK       MIX PCPN  36  35  96 NW8       29.74R
HELENA         CLOUDY    43  39  86 NW6       29.70S
BUTTE          CLOUDY    37  32  82 NW7       29.71R
BOZEMAN        LGT RAIN  41  39  93 E5        29.67R

WESTERN MONTANA


CITY           SKY/WX    TMP DP  RH WIND       PRES   REMARKS
MISSOULA       CLOUDY    39  39 100 NW3       29.78R
KALISPELL      NOT AVBL

NORTH DAKOTA


CITY           SKY/WX    TMP DP  RH WIND       PRES   REMARKS
WILLISTON      CLOUDY    31  22  69 NE12      29.86S
DICKINSON      CLOUDY    27  26  96 NE13      29.75R FOG
MINOT          CLOUDY    30  25  81 N15       29.83R
BISMARCK       CLOUDY    32  28  85 NE14      29.79R

SOUTHERN SASKATCHEWAN


CITY           SKY/WX    TMP DP  RH WIND       PRES   REMARKS
REGINA         CLOUDY    27  19  74 NE10      29.95R
MOOSE JAW      CLOUDY    27  23  86 E7        29.96R
ESTEVAN        CLOUDY    28  21  74 NE10      29.91R
SWIFT CURRENT  CLOUDY    27  25  93 SE9       29.87S




USA.gov is the U.S. government's official web portal to all federal, state and local government web resources and services.